User: anonymous   Login
Location: Caltech
(34.1382°N, 118.1253°W)
Time: 02:35:17
(UTC-07:00)
Language:

Oscar 10/S400 - Orbit

View from above orbital plane
View from above orbital plane
View from above satellite
View from above satellite

Ground track
Ground track

The orbit data is extracted from the following two-line orbital elements,

1 14129U 83058B   18172.64249875  .00000036  00000-0  00000+0 0  9993
2 14129  26.9579 335.2532 6024365  44.0265  71.1775  2.05869407235422
Epoch (UTC): 21 June 2018 15:25:11
Eccentricity: 0.6024365
inclination: 26.9579°
perigee height: 3999 km
apogee height: 35448 km
right ascension of ascending node: 335.2532°
argument of perigee: 44.0265°
revolutions per day: 2.05869407
mean anomaly at epoch: 71.1775°
orbit number at epoch: 23542

The dashed part of the orbit path shows where the satellite is in the earth's shadow,  

DLR